F5MAP-5 Weather Reports


time (UTC)temp
C
wind
direction
speed
KPH
gust
KPH
rain 1hr
cm
rain 24hr
cm
rain mn
cm
humidity
%
barometer
mb
20260506190211 11 192 8.0 17.7 0.05 0.23 0.23 92 1010.1
20260506185212 11 215 8.0 16.1 0.08 0.23 0.23 92 1010.1
20260506184211 11 227 9.7 19.3 0.08 0.23 0.23 92 1010.0
20260506183211 11 234 11.3 20.9 0.08 0.20 0.20 92 1009.9
20260506182211 11 233 11.3 27.4 0.08 0.20 0.20 92 1009.8
20260506181211 11 212 11.3 25.7 0.08 0.18 0.18 92 1009.7
20260506180211 11 222 11.3 22.5 0.08 0.18 0.18 92 1009.6
20260506175210 11 242 12.9 20.9 0.08 0.15 0.15 92 1009.5
20260506174210 11 269 12.9 24.1 0.08 0.15 0.15 91 1009.4
20260506173210 11 228 11.3 22.5 0.08 0.13 0.13 91 1009.3
20260506172210 11 211 9.7 20.9 0.08 0.13 0.13 91 1009.2
20260506171210 11 248 14.5 22.5 0.08 0.10 0.10 91 1009.2
20260506170210 11 237 9.7 19.3 0.08 0.10 0.10 91 1009.1
20260506165210 11 221 8.0 19.3 0.08 0.08 0.08 91 1009.0
20260506164210 11 236 11.3 20.9 0.08 0.08 0.08 90 1009.0
20260506163210 12 244 12.9 22.5 0.05 0.05 0.05 90 1008.9
20260506162210 12 178 12.9 20.9 0.05 0.05 0.05 90 1008.9
20260506161210 12 206 11.3 20.9 0.03 0.03 0.03 90 1008.9
20260506160210 12 243 14.5 25.7 0.03 0.03 0.03 89 1008.9
20260506155210 12 221 9.7 19.3 0.00 0.00 0.00 89 1008.9
20260506154210 12 213 9.7 20.9 0.00 0.00 0.00 89 1008.8
20260506153210 12 204 9.7 17.7 0.00 0.00 0.00 88 1008.7
20260506152210 12 234 11.3 19.3 0.00 0.00 0.00 88 1008.7
20260506151210 12 199 8.0 19.3 0.00 0.00 0.00 87 1008.6
20260506150209 12 227 9.7 25.7 0.00 0.00 0.00 87 1008.6
20260506145212 12 250 11.3 20.9 0.00 0.00 0.00 87 1008.5
20260506144211 12 202 12.9 22.5 0.00 0.00 0.00 86 1008.5
20260506143211 12 234 14.5 24.1 0.00 0.00 0.00 87 1008.4
20260506142210 12 206 11.3 22.5 0.00 0.00 0.00 86 1008.3
20260506141210 12 218 14.5 24.1 0.00 0.00 0.00 86 1008.3
20260506140211 13 202 11.3 27.4 0.00 0.00 0.00 86 1008.2
20260506135214 13 186 17.7 27.4 0.00 0.00 0.00 86 1008.1
20260506134214 13 235 14.5 32.2 0.00 0.00 0.00 86 1008.1
20260506133214 13 225 16.1 29.0 0.00 0.00 0.00 87 1008.0
20260506132213 13 230 12.9 27.4 0.00 0.00 0.00 87 1008.0
20260506131215 13 283 16.1 25.7 0.00 0.00 0.00 87 1007.9
20260506130214 13 268 16.1 25.7 0.00 0.00 0.00 87 1007.8
20260506125214 13 222 14.5 24.1 0.00 0.00 0.00 87 1007.7
20260506124214 13 246 12.9 30.6 0.00 0.00 0.00 87 1007.6
20260506123214 14 228 14.5 25.7 0.00 0.00 0.00 87 1007.6
20260506122214 14 280 9.7 30.6 0.00 0.00 0.00 87 1007.4
20260506121213 14 267 14.5 27.4 0.00 0.00 0.00 86 1007.3
20260506120213 14 238 16.1 24.1 0.00 0.00 0.00 86 1007.3
20260506115214 14 195 14.5 25.7 0.00 0.00 0.00 85 1007.4
20260506114214 15 273 14.5 29.0 0.00 0.00 0.00 84 1007.3
20260506113214 15 258 14.5 25.7 0.00 0.00 0.00 83 1007.2
20260506112213 15 252 11.3 25.7 0.00 0.00 0.00 82 1007.1
20260506111213 15 225 19.3 29.0 0.00 0.00 0.00 80 1007.2
20260506110213 15 235 11.3 22.5 0.00 0.00 0.00 80 1007.1
20260506105213 15 182 14.5 25.7 0.00 0.00 0.00 79 1007.2
20260506104213 15 223 11.3 19.3 0.00 0.00 0.00 79 1007.1
20260506103213 15 236 14.5 24.1 0.00 0.00 0.00 80 1007.0
20260506102213 15 291 8.0 19.3 0.00 0.00 0.00 80 1007.0
20260506101213 15 250 9.7 19.3 0.00 0.00 0.00 80 1006.9
20260506100220 15 211 6.4 14.5 0.00 0.00 0.00 80 1006.9
20260506095213 15 226 11.3 19.3 0.00 0.00 0.00 79 1006.8
20260506094213 15 234 6.4 16.1 0.00 0.00 0.00 78 1006.8
20260506093213 15 238 9.7 20.9 0.00 0.00 0.00 77 1006.7
20260506092213 15 211 11.3 19.3 0.00 0.00 0.00 77 1006.7
20260506091212 16 203 6.4 19.3 0.00 0.00 0.00 77 1006.7
20260506090212 16 196 12.9 19.3 0.00 0.00 0.00 78 1006.5
20260506085213 16 198 11.3 19.3 0.00 0.00 0.00 78 1006.5
20260506084213 15 205 9.7 17.7 0.00 0.00 0.00 79 1006.4
20260506083213 15 196 9.7 17.7 0.00 0.00 0.00 80 1006.2
20260506082212 15 238 11.3 20.9 0.00 0.00 0.00 80 1006.2
20260506081213 15 229 11.3 17.7 0.00 0.00 0.00 81 1006.2
20260506080212 15 236 6.4 19.3 0.00 0.00 0.00 82 1006.2
20260506073213 15 233 11.3 22.5 0.00 0.00 0.00 87 1006.3
20260506072213 14 250 11.3 22.5 0.00 0.00 0.00 89 1006.3
20260506071213 14 234 9.7 20.9 0.00 0.00 0.00 91 1006.3
20260506070213 13 255 4.8 16.1 0.00 0.00 0.00 92 1006.2
20260506062213 12 178 9.7 16.1 0.00 0.00 0.00 92 1006.4
20260506061213 11 246 4.8 14.5 0.00 0.00 0.00 92 1006.6
20260506060213 11 186 8.0 12.9 0.00 0.00 0.00 92 1006.6
20260506051212 10 236 1.6 6.4 0.00 0.00 0.00 91 1006.4
20260506050212 10 221 4.8 11.3 0.00 0.00 0.00 91 1006.6
20260506044214 10 171 6.4 11.3 0.00 0.00 0.00 91 1006.7
20260506043213 10 204 4.8 9.7 0.00 0.00 0.00 91 1006.8
20260506042212 10 169 4.8 12.9 0.00 0.00 0.00 91 1006.8
20260506041213 10 203 4.8 9.7 0.00 0.00 0.00 90 1006.7
20260506040212 10 198 6.4 11.3 0.00 0.00 0.00 90 1006.8
20260506035213 10 229 3.2 9.7 0.00 0.00 0.00 90 1006.9
20260506034213 10 180 4.8 11.3 0.00 0.00 0.00 90 1007.0
20260506033212 10 222 6.4 11.3 0.00 0.00 0.00 90 1007.0
20260506032212 10 198 8.0 12.9 0.00 0.00 0.00 90 1006.9
20260506031212 10 217 6.4 11.3 0.00 0.00 0.00 90 1006.9
20260506030212 11 175 6.4 14.5 0.00 0.00 0.00 90 1007.0
20260506025213 11 202 4.8 9.7 0.00 0.00 0.00 89 1006.9
20260506024213 11 181 4.8 9.7 0.00 0.00 0.00 89 1007.1
20260506023213 11 190 4.8 9.7 0.00 0.00 0.00 89 1007.1
20260506022212 11 178 3.2 8.0 0.00 0.00 0.00 89 1007.2
20260506021212 11 234 3.2 11.3 0.00 0.00 0.00 89 1007.3
20260506020212 11 204 4.8 11.3 0.00 0.00 0.00 89 1007.6
20260506015212 11 204 6.4 11.3 0.00 0.00 0.00 89 1007.7
20260506014212 11 217 6.4 12.9 0.00 0.00 0.00 89 1007.8
20260506013212 11 196 4.8 16.1 0.00 0.00 0.00 89 1007.9
20260506012212 11 213 6.4 12.9 0.00 0.00 0.00 89 1008.0
20260506011212 11 217 4.8 11.3 0.00 0.00 0.00 89 1008.1
20260506010213 12 236 6.4 11.3 0.00 0.00 0.00 89 1008.0
20260506005212 12 219 8.0 14.5 0.00 0.00 0.00 89 1007.9
20260506004211 12 218 6.4 12.9 0.00 0.00 0.00 89 1007.9
20260506003212 12 209 6.4 12.9 0.00 0.00 0.00 89 1008.0
20260506002212 12 192 6.4 14.5 0.00 0.00 0.00 89 1008.0
20260506001212 12 183 8.0 16.1 0.00 0.00 0.00 89 1008.2
20260506000212 12 187 6.4 12.9 0.00 0.00 0.00 90 1008.4
20260505235211 12 247 6.4 12.9 0.00 0.00 0.00 90 1008.4
20260505234211 12 210 6.4 16.1 0.00 0.00 0.00 90 1008.5
20260505233212 12 200 6.4 16.1 0.00 0.00 0.00 90 1008.8
20260505232212 12 215 6.4 16.1 0.00 0.00 0.00 90 1008.8
20260505231211 12 216 9.7 17.7 0.00 0.00 0.00 90 1008.9
20260505230211 12 220 9.7 20.9 0.00 0.00 0.00 90 1008.9
20260505225212 12 233 6.4 12.9 0.00 0.00 0.00 90 1008.8
20260505224212 12 196 4.8 11.3 0.00 0.00 0.00 90 1008.8
20260505223212 12 236 4.8 9.7 0.00 0.00 0.00 90 1008.8
20260505222211 12 194 4.8 8.0 0.00 0.00 0.00 90 1008.8
20260505221211 12 182 4.8 9.7 0.00 0.00 0.00 90 1008.8
20260505220211 12 211 3.2 8.0 0.00 0.00 0.00 90 1009.0
20260505215211 12 194 6.4 12.9 0.00 0.00 0.00 90 1009.1
20260505214211 12 230 6.4 12.9 0.00 0.00 0.00 90 1009.1
20260505213211 12 185 6.4 14.5 0.00 0.00 0.00 89 1009.1
20260505212211 12 198 6.4 11.3 0.00 0.00 0.00 89 1009.0
20260505211211 12 194 8.0 16.1 0.00 0.00 0.00 89 1008.9
20260505210211 12 161 8.0 16.1 0.00 0.00 0.00 88 1008.8
20260505205212 12 226 8.0 17.7 0.00 0.00 0.00 88 1009.0
20260505204213 13 174 3.2 14.5 0.00 0.00 0.00 87 1008.9
20260505203212 13 161 4.8 9.7 0.00 0.00 0.00 87 1009.0
20260505202212 13 188 3.2 6.4 0.00 0.00 0.00 86 1009.0
20260505201212 13 181 1.6 4.8 0.00 0.00 0.00 86 1008.7
20260505200212 13 209 3.2 11.3 0.00 0.00 0.00 86 1008.6
20260505195212 13 219 6.4 12.9 0.00 0.00 0.00 85 1008.7
20260505194211 13 197 8.0 16.1 0.00 0.00 0.00 85 1008.5
20260505193213 14 240 9.7 16.1 0.00 0.00 0.00 85 1008.6
20260505192212 14 219 8.0 12.9 0.00 0.00 0.00 84 1008.5
20260505191211 14 223 9.7 16.1 0.00 0.00 0.00 84 1008.4